Station Historical Data
Daily Summary for November 21, 2017 Units:  Metric    English   Both
« Previous Day
Next Day »
Daily Weekly Monthly Yearly Custom
  High: Low: Average:
Temperature: 18.2 °C 5.2 °C 11.5 °C
Dew Point: 11.3 °C 1.2 °C 6.9 °C
Humidity: 90% 61% 74%
Wind Speed: 9.3km/h 0km/h 1.4km/h
Wind Gust: 9.7km/h - -
Wind- - WNW
Pressure: 1024.3 hPa 1017.2 hPa -
Precipitation: 0 mm    
Historical Graphs
 
 
Tabular Data for November 21, 2017
Time Temperature Dew Point Pressure Wind Wind Speed Wind Gust Humidity Rainfall Rate (Hourly) Conditions
00:04 5.5 °C 1.4 °C 1024.3 hPa Calm     75% 0 mm CLR
00:09 5.4 °C 1.4 °C 1023.9 hPa Calm     75% 0 mm CLR
00:19 5.4 °C 1.3 °C 1023.9 hPa Calm     75% 0 mm CLR
00:29 5.3 °C 1.4 °C 1023.9 hPa Calm     76% 0 mm CLR
00:34 5.5 °C 1.6 °C 1023.9 hPa Calm     76% 0 mm CLR
00:39 5.6 °C 1.4 °C 1023.9 hPa Calm     75% 0 mm CLR
00:45 5.6 °C 1.3 °C 1023.9 hPa Calm     74% 0 mm CLR
00:50 5.6 °C 1.3 °C 1023.9 hPa WNW 1.9 km/h   74% 0 mm CLR
00:55 5.6 °C 1.3 °C 1023.9 hPa WNW 1.9 km/h   74% 0 mm CLR
01:05 5.5 °C 1.4 °C 1023.6 hPa Calm     75% 0 mm SCT
01:10 5.4 °C 1.4 °C 1023.6 hPa Calm     75% 0 mm SCT
01:15 5.4 °C 1.3 °C 1023.6 hPa Calm     75% 0 mm SCT
01:20 5.3 °C 1.3 °C 1023.6 hPa Calm     75% 0 mm SCT
01:26 5.3 °C 1.4 °C 1023.6 hPa Calm     76% 0 mm SCT
01:31 5.2 °C 1.3 °C 1023.6 hPa Calm     76% 0 mm SCT
01:36 5.3 °C 1.2 °C 1023.6 hPa Calm     75% 0 mm SCT
01:41 5.4 °C 1.3 °C 1023.2 hPa Calm     75% 0 mm SCT
01:46 5.4 °C 1.3 °C 1023.2 hPa Calm     75% 0 mm SCT
01:51 5.4 °C 1.3 °C 1023.2 hPa Calm     75% 0 mm SCT
01:56 5.4 °C 1.4 °C 1023.2 hPa Calm     75% 0 mm SCT
02:01 5.4 °C 1.4 °C 1023.2 hPa Calm     75% 0 mm SCT
02:06 5.5 °C 1.4 °C 1023.2 hPa Calm     75% 0 mm SCT
02:11 5.5 °C 1.6 °C 1023.2 hPa Calm     76% 0 mm SCT
02:16 5.5 °C 1.4 °C 1023.2 hPa Calm     75% 0 mm SCT
02:21 5.5 °C 1.6 °C 1022.9 hPa Calm     76% 0 mm SCT
02:31 5.8 °C 1.6 °C 1022.9 hPa Calm     74% 0 mm SCT
02:36 5.9 °C 1.7 °C 1022.9 hPa West 1.9 km/h   74% 0 mm SCT
02:41 5.9 °C 1.8 °C 1022.9 hPa West 1.9 km/h   75% 0 mm SCT
02:51 5.9 °C 1.4 °C 1022.9 hPa West 1.9 km/h   73% 0 mm SCT
02:56 6 °C 1.5 °C 1022.9 hPa West 1.9 km/h   73% 0 mm SCT
03:06 6 °C 1.5 °C 1022.9 hPa Calm     73% 0 mm FEW
03:11 6 °C 1.5 °C 1022.9 hPa Calm     73% 0 mm FEW
03:17 6 °C 1.3 °C 1022.9 hPa Calm     72% 0 mm FEW
03:22 6 °C 1.3 °C 1022.9 hPa West 1.9 km/h   72% 0 mm FEW
03:27 6.1 °C 1.4 °C 1022.9 hPa West 1.9 km/h   72% 0 mm FEW
03:37 6.1 °C 1.4 °C 1022.6 hPa West 1.9 km/h 1.9 km/h 72% 0 mm FEW
03:42 6.1 °C 1.4 °C 1022.6 hPa West 1.9 km/h   72% 0 mm FEW
03:52 6.2 °C 1.7 °C 1022.6 hPa West 1.9 km/h   73% 0 mm FEW
04:03 6.3 °C 1.8 °C 1022.6 hPa Calm     73% 0 mm SCT
04:08 6.4 °C 1.9 °C 1022.6 hPa Calm     73% 0 mm SCT
04:18 6.6 °C 2.1 °C 1022.2 hPa Calm     73% 0 mm SCT
04:23 6.7 °C 2.2 °C 1022.2 hPa Calm     73% 0 mm BKN
04:28 6.7 °C 2.2 °C 1022.6 hPa Calm     73% 0 mm BKN
04:38 6.7 °C 2.3 °C 1022.2 hPa Calm     74% 0 mm BKN
04:43 6.6 °C 2.3 °C 1022.2 hPa Calm     74% 0 mm BKN
04:53 6.7 °C 2.6 °C 1022.2 hPa Calm     75% 0 mm BKN
05:03 6.8 °C 2.7 °C 1022.2 hPa Calm     75% 0 mm OVC
05:08 6.8 °C 2.7 °C 1022.2 hPa Calm     75% 0 mm OVC
05:14 6.9 °C 2.8 °C 1022.2 hPa Calm     75% 0 mm OVC
05:19 6.9 °C 2.9 °C 1022.2 hPa Calm     76% 0 mm OVC
05:29 6.8 °C 3.1 °C 1022.2 hPa Calm     77% 0 mm BKN
05:34 6.9 °C 3.1 °C 1022.2 hPa West 1.9 km/h 1.9 km/h 77% 0 mm BKN
05:39 6.9 °C 3.2 °C 1022.2 hPa West 1.9 km/h   77% 0 mm BKN
05:44 7 °C 3.2 °C 1022.2 hPa West 1.9 km/h   77% 0 mm BKN
05:49 7.1 °C 3.3 °C 1022.2 hPa West 1.9 km/h 1.9 km/h 77% 0 mm BKN
05:54 7.1 °C 3.2 °C 1022.2 hPa West 1.9 km/h 1.9 km/h 76% 0 mm BKN
06:09 7.3 °C 3.3 °C 1022.2 hPa West 1.9 km/h   76% 0 mm BKN
06:14 7.3 °C 3.1 °C 1022.2 hPa West 1.9 km/h 1.9 km/h 75% 0 mm BKN
06:20 7.3 °C 3.4 °C 1022.2 hPa Calm   1.6 km/h 76% 0 mm BKN
06:25 7.4 °C 3.2 °C 1022.2 hPa Calm   1.6 km/h 75% 0 mm BKN
06:30 7.4 °C 3.3 °C 1022.2 hPa West 1.9 km/h   75% 0 mm BKN
06:35 7.4 °C 3.1 °C 1022.2 hPa West 1.9 km/h   74% 0 mm BKN
06:45 7.5 °C 3.2 °C 1022.2 hPa WNW 1.9 km/h   74% 0 mm BKN
06:50 7.5 °C 3.2 °C 1021.9 hPa West 1.9 km/h   74% 0 mm BKN
06:55 7.4 °C 3.1 °C 1021.9 hPa West 1.9 km/h 1.9 km/h 74% 0 mm BKN
07:00 7.4 °C 3.1 °C 1021.9 hPa West 1.9 km/h   74% 0 mm BKN
07:05 7.3 °C 2.9 °C 1021.9 hPa West 1.9 km/h   74% 0 mm BKN
07:10 7.2 °C 2.9 °C 1021.9 hPa West 1.9 km/h   74% 0 mm BKN
07:15 7.2 °C 2.8 °C 1021.9 hPa WNW 1.9 km/h   74% 0 mm BKN
07:17 7.2 °C 2.8 °C 1021.9 hPa WNW 3.7 km/h   74% 0 mm BKN
07:23 7.1 °C 2.7 °C 1021.9 hPa West 3.7 km/h   74% 0 mm BKN
07:28 7.1 °C 2.7 °C 1021.9 hPa West 3.7 km/h   74% 0 mm BKN
07:33 7 °C 2.7 °C 1021.9 hPa West 1.9 km/h   74% 0 mm BKN
07:48 6.9 °C 2.8 °C 1021.9 hPa Calm     75% 0 mm BKN
07:58 6.9 °C 2.8 °C 1021.9 hPa Calm     75% 0 mm BKN
08:03 6.9 °C 3 °C 1021.9 hPa Calm     76% 0 mm BKN
08:08 7.1 °C 3.1 °C 1021.9 hPa Calm     76% 0 mm BKN
08:18 7.6 °C 3 °C 1021.9 hPa West 1.9 km/h   73% 0 mm BKN
08:23 7.8 °C 3.6 °C 1021.9 hPa WNW 1.9 km/h   75% 0 mm BKN
08:29 7.9 °C 3.3 °C 1021.9 hPa WNW 1.9 km/h   73% 0 mm BKN
08:34 8.1 °C 3.5 °C 1021.9 hPa West 1.9 km/h 1.9 km/h 73% 0 mm BKN
08:39 8.2 °C 3.6 °C 1021.9 hPa West 1.9 km/h 1.9 km/h 73% 0 mm BKN
08:49 8.6 °C 3.4 °C 1022.2 hPa West 1.9 km/h 1.9 km/h 70% 0 mm BKN
08:54 8.7 °C 3.8 °C 1022.2 hPa WNW 1.9 km/h 1.9 km/h 71% 0 mm BKN
09:04 9 °C 3.8 °C 1022.2 hPa West 3.7 km/h   70% 0 mm BKN
09:09 9.2 °C 4 °C 1022.2 hPa WNW 5.6 km/h 5.6 km/h 70% 0 mm BKN
09:14 9.2 °C 3.8 °C 1022.2 hPa West 5.6 km/h 5.6 km/h 69% 0 mm BKN
09:19 9.2 °C 3.8 °C 1022.2 hPa West 5.6 km/h 5.6 km/h 69% 0 mm BKN
09:24 9.3 °C 4.1 °C 1022.2 hPa West 5.6 km/h 5.6 km/h 70% 0 mm BKN
09:29 9.5 °C 4.3 °C 1022.2 hPa West 5.6 km/h 5.6 km/h 70% 0 mm BKN
09:34 9.9 °C 4.4 °C 1021.9 hPa West 7.4 km/h 7.4 km/h 69% 0 mm BKN
09:40 10.1 °C 4.7 °C 1021.9 hPa Calm   9.7 km/h 69% 0 mm BKN
09:45 10.6 °C 5.1 °C 1021.9 hPa WNW 9.3 km/h 9.3 km/h 69% 0 mm BKN
09:50 10.8 °C 5.3 °C 1021.9 hPa West 5.6 km/h   69% 0 mm BKN
09:55 10.9 °C 5.4 °C 1021.9 hPa West 5.6 km/h 5.6 km/h 69% 0 mm BKN
10:05 11.3 °C 6 °C 1021.9 hPa West 5.6 km/h   70% 0 mm BKN
10:10 11.4 °C 5.9 °C 1021.6 hPa West 5.6 km/h 5.6 km/h 69% 0 mm BKN
10:15 11.4 °C 6.2 °C 1021.6 hPa West 5.6 km/h   70% 0 mm BKN
10:35 11.7 °C 6.6 °C 1021.6 hPa West 3.7 km/h 3.7 km/h 71% 0 mm BKN
10:40 12.4 °C 7.1 °C 1021.6 hPa West 3.7 km/h 3.7 km/h 70% 0 mm BKN
10:45 13 °C 7 °C 1021.6 hPa WNW 3.7 km/h 3.7 km/h 67% 0 mm BKN
10:56 13.4 °C 7.2 °C 1021.2 hPa WNW 3.7 km/h 3.7 km/h 66% 0 mm BKN
11:01 13.5 °C 7.5 °C 1021.2 hPa WNW 3.7 km/h 3.7 km/h 67% 0 mm BKN
11:04 13.5 °C 7.3 °C 1021.2 hPa WNW 1.9 km/h   66% 0 mm BKN
11:09 13.5 °C 7.3 °C 1021.2 hPa WNW 1.9 km/h 1.9 km/h 66% 0 mm BKN
11:19 14.1 °C 7.8 °C 1020.9 hPa WNW 1.9 km/h 1.9 km/h 66% 0 mm BKN
11:24 14.3 °C 8.2 °C 1020.9 hPa WNW 3.7 km/h 3.7 km/h 67% 0 mm BKN
11:29 14.7 °C 8.8 °C 1020.9 hPa WNW 3.7 km/h   68% 0 mm BKN
11:34 15 °C 9.1 °C 1020.5 hPa WNW 3.7 km/h 3.7 km/h 68% 0 mm BKN
11:39 15.1 °C 8.7 °C 1020.5 hPa WNW 5.6 km/h   66% 0 mm BKN
11:44 15.2 °C 9.1 °C 1020.5 hPa WNW 5.6 km/h   67% 0 mm BKN
11:54 15.3 °C 9.2 °C 1020.2 hPa West 3.7 km/h 3.7 km/h 67% 0 mm BKN
12:00 15.5 °C 9.4 °C 1020.2 hPa WNW 3.7 km/h   67% 0 mm BKN
12:05 15.7 °C 9.4 °C 1020.2 hPa Calm   1.6 km/h 66% 0 mm BKN
12:10 15.8 °C 9.4 °C 1020.2 hPa Calm   3.2 km/h 66% 0 mm BKN
12:15 15.9 °C 9.6 °C 1019.9 hPa NW 3.7 km/h   66% 0 mm BKN
12:20 16.2 °C 10.1 °C 1019.9 hPa WNW 1.9 km/h   67% 0 mm BKN
12:30 17.1 °C 10.4 °C 1019.5 hPa WNW 1.9 km/h 1.9 km/h 65% 0 mm BKN
12:35 17.1 °C 10.5 °C 1019.5 hPa West 1.9 km/h 1.9 km/h 65% 0 mm BKN
12:40 17.4 °C 10.8 °C 1019.5 hPa West 3.7 km/h 3.7 km/h 65% 0 mm BKN
12:45 17.4 °C 10.5 °C 1019.5 hPa WNW 3.7 km/h   64% 0 mm BKN
12:50 17.4 °C 10.5 °C 1019.2 hPa WNW 3.7 km/h 3.7 km/h 64% 0 mm BKN
12:55 17.2 °C 10.3 °C 1019.2 hPa NW 3.7 km/h 3.7 km/h 64% 0 mm BKN
13:06 17.1 °C 10.7 °C 1019.2 hPa West 3.7 km/h   66% 0 mm BKN
13:11 17.4 °C 10.7 °C 1019.2 hPa WNW 1.9 km/h 1.9 km/h 65% 0 mm BKN
13:16 17.6 °C 10.4 °C 1018.8 hPa WNW 5.6 km/h 5.6 km/h 63% 0 mm BKN
13:21 17.5 °C 10.6 °C 1018.8 hPa NW 5.6 km/h 5.6 km/h 64% 0 mm BKN
13:31 17.6 °C 10.4 °C 1018.8 hPa NW 3.7 km/h 3.7 km/h 63% 0 mm BKN
13:41 17.3 °C 10.7 °C 1018.8 hPa NW 3.7 km/h   65% 0 mm BKN
13:47 17.2 °C 10.6 °C 1018.8 hPa NW 1.9 km/h   65% 0 mm BKN
13:52 17.3 °C 10.9 °C 1018.5 hPa NW 1.9 km/h   66% 0 mm BKN
14:07 17.5 °C 10.8 °C 1018.2 hPa WNW 1.9 km/h   65% 0 mm BKN
14:12 17.6 °C 10.7 °C 1018.2 hPa NW 1.9 km/h 1.9 km/h 64% 0 mm BKN
14:22 17.7 °C 10.8 °C 1018.2 hPa WNW 3.7 km/h   64% 0 mm BKN
14:27 17.9 °C 11 °C 1018.2 hPa West 3.7 km/h 3.7 km/h 64% 0 mm BKN
14:32 18.1 °C 10.9 °C 1017.8 hPa WSW 3.7 km/h 3.7 km/h 63% 0 mm BKN
14:42 18.1 °C 10.7 °C 1017.8 hPa WNW 1.9 km/h 1.9 km/h 62% 0 mm BKN
14:47 18.2 °C 10.8 °C 1017.8 hPa WNW 3.7 km/h 3.7 km/h 62% 0 mm BKN
14:53 18.1 °C 10.4 °C 1017.8 hPa NNW 3.7 km/h   61% 0 mm BKN
14:58 18.1 °C 10.7 °C 1017.5 hPa NNW 3.7 km/h 3.7 km/h 62% 0 mm BKN
15:08 18 °C 10.6 °C 1017.8 hPa NW 1.9 km/h 1.9 km/h 62% 0 mm BKN
15:13 18.1 °C 10.9 °C 1017.5 hPa NW 1.9 km/h   63% 0 mm BKN
15:18 18.1 °C 10.7 °C 1017.5 hPa West 1.9 km/h   62% 0 mm BKN
15:23 18.2 °C 10.8 °C 1017.5 hPa WSW 1.9 km/h   62% 0 mm BKN
15:28 18.2 °C 11 °C 1017.5 hPa WNW 1.9 km/h   63% 0 mm BKN
15:38 18.2 °C 10.8 °C 1017.5 hPa WNW 1.9 km/h 1.9 km/h 62% 0 mm BKN
15:43 18.2 °C 11 °C 1017.5 hPa WNW 1.9 km/h   63% 0 mm BKN
15:53 18.1 °C 10.7 °C 1017.5 hPa NNW 1.9 km/h 1.9 km/h 62% 0 mm BKN
15:58 18.1 °C 11.1 °C 1017.5 hPa NNW 1.9 km/h   64% 0 mm BKN
16:04 18 °C 11.3 °C 1017.5 hPa NNW 1.9 km/h   65% 0 mm BKN
16:14 17.9 °C 11 °C 1017.5 hPa Calm     64% 0 mm BKN
16:19 17.9 °C 11.2 °C 1017.5 hPa Calm     65% 0 mm BKN
16:29 17.6 °C 11.2 °C 1017.5 hPa Calm     66% 0 mm BKN
16:34 17.4 °C 11 °C 1017.5 hPa Calm     66% 0 mm BKN
16:44 17.2 °C 11.2 °C 1017.5 hPa Calm     68% 0 mm BKN
16:49 17.1 °C 11.1 °C 1017.5 hPa Calm     68% 0 mm BKN
16:59 16.9 °C 11.2 °C 1017.5 hPa Calm     69% 0 mm BKN
17:04 16.8 °C 11.3 °C 1017.5 hPa Calm     70% 0 mm BKN
17:09 16.7 °C 11.2 °C 1017.5 hPa Calm     70% 0 mm BKN
17:15 16.5 °C 11 °C 1017.5 hPa Calm     70% 0 mm BKN
17:20 16.4 °C 11.1 °C 1017.5 hPa Calm     71% 0 mm BKN
17:25 16.2 °C 11.2 °C 1017.2 hPa Calm     72% 0 mm BKN
17:35 16 °C 10.9 °C 1017.2 hPa Calm     72% 0 mm BKN
17:40 15.9 °C 11.1 °C 1017.5 hPa Calm     73% 0 mm BKN
17:45 15.8 °C 10.9 °C 1017.5 hPa Calm     73% 0 mm BKN
17:50 15.7 °C 11.1 °C 1017.2 hPa Calm     74% 0 mm BKN
17:55 15.6 °C 10.9 °C 1017.5 hPa Calm     74% 0 mm BKN
18:00 15.5 °C 11.1 °C 1017.5 hPa Calm     75% 0 mm BKN
18:05 15.4 °C 11 °C 1017.5 hPa Calm     75% 0 mm BKN
18:10 15.3 °C 10.9 °C 1017.5 hPa Calm     75% 0 mm BKN
18:20 15.1 °C 10.9 °C 1017.5 hPa Calm     76% 0 mm CLR
18:25 15.1 °C 10.8 °C 1017.5 hPa Calm     76% 0 mm BKN
18:31 15 °C 11 °C 1017.8 hPa Calm     77% 0 mm BKN
18:36 14.9 °C 10.9 °C 1017.5 hPa Calm     77% 0 mm BKN
18:41 14.9 °C 10.9 °C 1017.5 hPa Calm     77% 0 mm BKN
18:51 14.7 °C 10.9 °C 1017.8 hPa Calm     78% 0 mm BKN
19:06 14.4 °C 10.8 °C 1017.8 hPa Calm     79% 0 mm BKN
19:11 14.3 °C 10.9 °C 1017.8 hPa Calm     80% 0 mm BKN
19:16 14.2 °C 10.8 °C 1017.8 hPa Calm     80% 0 mm BKN
19:21 14.2 °C 10.8 °C 1017.8 hPa Calm     80% 0 mm BKN
19:26 14.1 °C 10.9 °C 1017.8 hPa Calm     81% 0 mm BKN
19:31 14 °C 10.8 °C 1017.8 hPa Calm     81% 0 mm BKN
19:37 14 °C 10.8 °C 1017.8 hPa Calm     81% 0 mm BKN
19:47 13.8 °C 10.8 °C 1018.2 hPa Calm     82% 0 mm BKN
19:57 13.9 °C 10.9 °C 1018.2 hPa Calm     82% 0 mm BKN
20:02 14.1 °C 11.1 °C 1018.2 hPa Calm     82% 0 mm BKN
20:07 14.1 °C 11.1 °C 1018.2 hPa Calm     82% 0 mm BKN
20:17 14.1 °C 11.1 °C 1017.8 hPa Calm     82% 0 mm BKN
20:22 14.1 °C 11.1 °C 1017.8 hPa Calm     82% 0 mm BKN
20:32 13.9 °C 10.9 °C 1017.8 hPa Calm     82% 0 mm BKN
20:37 13.9 °C 10.9 °C 1017.8 hPa Calm     82% 0 mm BKN
20:42 13.7 °C 10.8 °C 1017.8 hPa Calm     83% 0 mm BKN
20:48 13.5 °C 10.8 °C 1017.8 hPa Calm     84% 0 mm BKN
20:58 13.4 °C 10.7 °C 1018.2 hPa Calm     84% 0 mm SCT
21:03 13.3 °C 10.6 °C 1018.2 hPa Calm     84% 0 mm SCT
21:08 13.2 °C 10.5 °C 1018.2 hPa Calm     84% 0 mm SCT
21:13 13.1 °C 10.7 °C 1018.2 hPa Calm     85% 0 mm SCT
21:18 13.1 °C 10.6 °C 1018.2 hPa Calm     85% 0 mm SCT
21:28 13 °C 10.7 °C 1018.2 hPa Calm     86% 0 mm SCT
21:33 13 °C 10.7 °C 1018.2 hPa Calm     86% 0 mm SCT
21:38 13 °C 10.7 °C 1018.2 hPa Calm     86% 0 mm SCT
21:43 12.9 °C 10.7 °C 1018.5 hPa Calm     86% 0 mm SCT
21:48 12.8 °C 10.4 °C 1018.2 hPa Calm     85% 0 mm SCT
21:53 12.7 °C 10.4 °C 1018.2 hPa Calm     86% 0 mm SCT
21:59 12.6 °C 10.3 °C 1018.2 hPa Calm     86% 0 mm SCT
22:04 12.3 °C 10.1 °C 1018.2 hPa Calm     86% 0 mm FEW
22:09 12.3 °C 10.2 °C 1018.2 hPa Calm     87% 0 mm FEW
22:14 12.2 °C 10.2 °C 1018.2 hPa Calm     88% 0 mm FEW
22:24 12.1 °C 10.1 °C 1018.2 hPa Calm     88% 0 mm FEW
22:44 11.6 °C 9.7 °C 1017.8 hPa Calm     88% 0 mm FEW
22:54 11.4 °C 9.7 °C 1017.8 hPa Calm     89% 0 mm FEW
22:59 11.3 °C 9.6 °C 1017.8 hPa Calm     89% 0 mm FEW
23:04 11.4 °C 9.8 °C 1017.8 hPa Calm     90% 0 mm BKN
23:09 11.6 °C 9.9 °C 1017.8 hPa Calm     90% 0 mm BKN
23:14 11.5 °C 9.9 °C 1017.8 hPa Calm     90% 0 mm BKN
23:19 11.6 °C 9.9 °C 1017.8 hPa Calm     90% 0 mm BKN
23:24 11.4 °C 9.7 °C 1017.8 hPa Calm     89% 0 mm BKN
23:29 11.2 °C 9.5 °C 1017.8 hPa Calm     89% 0 mm BKN
23:34 11.2 °C 9.7 °C 1017.8 hPa Calm     90% 0 mm BKN
23:39 11.1 °C 9.4 °C 1017.8 hPa Calm     89% 0 mm BKN
23:45 11 °C 9.3 °C 1017.8 hPa Calm     89% 0 mm BKN
Piedmont Bend
Compliments of Weather Underground - 4 mb